Regional Weather Roundup
Issued by NWS

Home | Current Version | Previous Version | Text Only | Print | Product List | Glossary Off
Versions: 1 2 3 4 5 6 7 8 9 10 11 12 13 14 15 16 17 18 19 20 21 22 23 24 25 26 27 28 29 30 31 32 33 34 35 36 37 38 39 40 41 42 43 44 45 46 47 48 49 50

000
ASUS43 KBIS 281420
RWRND

NORTH DAKOTA REGIONAL WEATHER ROUNDUP
NATIONAL WEATHER SERVICE BISMARCK ND
800 AM CST WED JAN 28 2015

NOTE: "FAIR" INDICATES FEW OR NO CLOUDS BELOW 12,000 FEET WITH NO
SIGNIFICANT WEATHER AND/OR OBSTRUCTIONS TO VISIBILITY.


NDZ001>003-009>011-017-281500-
NORTHWEST NORTH DAKOTA

CITY           SKY/WX    TMP DP  RH WIND       PRES   REMARKS
WILLISTON      PTCLDY    36  32  85 W13       29.76R
MINOT          FOG       27  26  96 NW8       29.76R VSB 1/4 WCI  19
MINOT AFB      FRZ DRZL  28  28 100 NW5       29.76R VSB 1/4
$$

NDZ018>021-031>035-040>046-281500-
SOUTHWEST NORTH DAKOTA

CITY           SKY/WX    TMP DP  RH WIND       PRES   REMARKS
BISMARCK       MOCLDY    25  24  96 CALM      29.73S
DICKINSON      MOCLDY    37  31  78 W13       29.74R
GARRISON         N/A     30  28  92 N8        29.72S
HETTINGER ARPT MOCLDY    38  31  76 NW13      29.78R
$$

NDZ004>008-012>016-024-026-027-054-281500-
NORTHEAST NORTH DAKOTA

CITY           SKY/WX    TMP DP  RH WIND       PRES   REMARKS
GRAND FORKS    CLOUDY    33  32  96 S10       29.79F FOG
GRND FRKS AFB  CLOUDY    32  32 100 S7        29.79S FOG
DEVILS LAKE    CLOUDY    30  28  93 CALM      29.74R VSB 1/2
$$

NDZ022-023-025-028>030-036>039-047>053-281500-
SOUTHEAST NORTH DAKOTA

CITY           SKY/WX    TMP DP  RH WIND       PRES   REMARKS
FARGO          CLOUDY    34  31  88 S14G24    29.80S
JAMESTOWN      FOG       31  30  96 S8        29.72F VSB 1/4
$$




USA.gov is the U.S. government's official web portal to all federal, state and local government web resources and services.